Tracking 29892 objects as of 21-Nov-2024
HD Live streaming from Space Station
objects crossing your sky now

STARLINK-6042

Track STARLINK-6042 now!
10-day predictions
STARLINK-6042 is classified as:


NORAD ID: 56808
Int'l Code: 2023-078AT
Perigee: 517.0 km
Apogee: 521.3 km
Inclination: 70.0 °
Period: 94.9 minutes
Semi major axis: 6890 km
RCS: Unknown
Launch date: May 31, 2023
Source: United States (US)
Launch site: AIR FORCE WESTERN TEST RANGE (AFWTR)
Your satellite tracking list
Your tracking list is empty




NASA's NSSDC Master Catalog

Two Line Element Set (TLE):
1 56808U 23078AT  24325.59329042  .00003200  00000-0  16263-3 0  9993
2 56808  70.0017  33.4019 0003071 267.0769  93.0049 15.17961845 83577
Source of the keplerian elements: AFSPC